KLM82A EBBR-EHAM

Flight info

Callsign KLM82A
Flight time N/A
Altitude 16000
Route HELEN
Aircraft E190/M-SDE3GILORVW/S

Departure

Time N/A
Airport Brussels Airport (EBBR)

Arrival

Time 2026-04-30 17:57
Airport Amsterdam Airport Schiphol (EHAM)
Time Latitude Longitude Altitude Speed Heading
2026-04-30 17:39 51.32335 3.85214 15949 ft 375 kts
2026-04-30 17:41 51.46469 4.00204 16263 ft 316 kts 45°
2026-04-30 17:42 51.50483 4.03135 16277 ft 327 kts 14°
2026-04-30 17:42 51.57289 4.04723 16232 ft 330 kts 12°
2026-04-30 17:43 51.61845 4.05775 15761 ft 327 kts 11°
2026-04-30 17:44 51.68615 4.07336 14440 ft 325 kts 12°
2026-04-30 17:44 51.75291 4.08964 13183 ft 332 kts 12°
2026-04-30 17:46 51.86677 4.11868 10935 ft 320 kts 13°
2026-04-30 17:47 51.94263 4.17116 9317 ft 287 kts 45°
2026-04-30 17:48 52.00246 4.25247 7818 ft 272 kts 45°
2026-04-30 17:48 52.04392 4.30778 6799 ft 244 kts 46°
2026-04-30 17:49 52.09584 4.37739 5529 ft 244 kts 46°
2026-04-30 17:50 52.15139 4.43587 3863 ft 237 kts
2026-04-30 17:51 52.19483 4.44682 3254 ft 193 kts 60°
2026-04-30 17:52 52.19978 4.50298 3257 ft 163 kts 85°
2026-04-30 17:53 52.23530 4.58923 2988 ft 186 kts 65°
2026-04-30 17:54 52.26141 4.66370 970 ft 168 kts 63°
2026-04-30 17:55 52.28187 4.71844 271 ft 108 kts 63°
2026-04-30 17:56 52.29502 4.75280 -4 ft 53 kts 55°
2026-04-30 17:57 52.29896 4.75900 -3 ft 13 kts 27°
2026-04-30 17:58 52.29998 4.76008 -2 ft 2 kts 53°
2026-04-30 17:59 52.30025 4.76074 -2 ft 5 kts 57°
2026-04-30 18:00 52.30230 4.76230 -2 ft 13 kts 330°
2026-04-30 18:00 52.30379 4.76128 -2 ft 5 kts 54°
2026-04-30 18:01 52.30391 4.76157 -2 ft 0 kts 57°